Location: Unspecified
(0.0000°N, 0.0000°E)
Time: 03:04:14
(UTC+00:00)

Courier 1B - Visible Passes

Search period start: 30 May 2016 00:00
Search period end: 09 June 2016 00:00
Orbit: 963 x 1209 km, 28.3° (Epoch: 28 May)

Date Brightness Start Highest point End Pass type
(mag) Time Alt. Az. Time Alt. Az. Time Alt. Az.
30 May 8.9 19:44:48 10° NNW 19:50:27 26° NNE 19:51:59 24° NE visible
30 May 10.0 21:37:35 10° WNW 21:38:52 17° WNW 21:38:52 17° WNW visible
31 May 9.4 18:51:55 10° NNW 18:56:30 19° NNE 19:01:14 10° ENE visible
31 May 8.6 20:43:58 10° NW 20:48:26 42° NNW 20:48:26 42° NNW visible
01 Jun 8.1 19:50:32 10° NW 19:57:03 46° NNE 19:58:02 44° NE visible
01 Jun 10.2 21:44:23 10° WNW 21:44:56 12° WNW 21:44:56 12° WNW visible
02 Jun 9.8 05:32:18 10° S 05:36:04 14° SSE 05:39:47 10° SE visible
02 Jun 8.7 18:57:18 10° NNW 19:03:12 33° NNE 19:07:39 17° E visible
02 Jun 8.8 20:50:29 10° WNW 20:54:33 39° WNW 20:54:33 39° WNW visible
03 Jun 9.9 04:39:50 10° S 04:41:43 11° SSE 04:43:35 10° SSE visible
03 Jun 7.5 19:56:46 10° WNW 20:03:34 83° NNE 20:04:12 74° E visible
04 Jun 7.8 19:03:14 10° NW 19:09:47 59° NNE 19:13:53 25° ESE visible
04 Jun 9.3 20:57:36 10° W 21:00:47 26° WSW 21:00:47 26° WSW visible
05 Jun 9.7 04:43:50 10° SSW 04:48:55 18° SSE 04:53:52 10° ESE visible
05 Jun 8.3 18:09:52 10° NW 18:16:00 42° NNE 18:22:25 10° E visible
05 Jun 7.9 20:03:32 10° WNW 20:10:07 55° SSW 20:10:28 54° SSW visible
06 Jun 9.8 03:53:14 13° S 03:54:36 14° SSE 03:58:21 10° SE visible
06 Jun 7.6 19:09:42 10° WNW 19:16:18 76° SSW 19:20:10 28° SE visible
06 Jun 9.8 21:05:31 10° WSW 21:07:05 15° WSW 21:07:05 15° WSW visible
07 Jun 9.1 04:49:48 13° SSW 04:55:47 30° SSE 05:02:19 10° E visible
07 Jun 7.7 18:16:02 10° NW 18:22:33 78° NNE 18:29:24 10° ESE visible
07 Jun 8.8 20:11:00 10° W 20:16:47 30° SSW 20:16:47 30° SSW visible
08 Jun 9.3 03:59:30 21° S 04:01:38 23° SSE 04:07:30 10° ESE visible
08 Jun 8.4 19:16:46 10° W 19:22:54 41° SSW 19:26:30 24° SSE visible
